This demonstration page uses our WeatherBlox Daily Observations layout. Learn more.

Left ArrowRight Arrow

44.8408, -93.29828

Hourly Observations for August 4, 2017

Temp ( °F °C ) Dew Point ( °F °C ) Humidity (%) Winds ( mph kmh ) Pressure ( in mb ) Visibility ( mi km ) Precip ( " mm )
12:53 am 00:53 Cloudy with Light Rain 54 12.2 47 8.3 77 77 NNW 15 24 30.04 1017 10 16 0.01 0.25
1:53 am 01:53 Cloudy 55 12.8 46 7.8 72 72 NNW 13 20 30.03 1017 10 16 0.00 0.03
2:53 am 02:53 Cloudy 56 13.3 46 7.8 70 70 NNW 12 19 30.03 1017 10 16 0.00 0.00
3:53 am 03:53 Mostly Cloudy 55 12.8 46 7.8 72 72 NNW 12 19 30.03 1017 10 16 0.00 0.00
4:53 am 04:53 Mostly Cloudy 55 12.8 47 8.3 74 74 NW 8 13 30.03 1017 10 16 0.00 0.00
5:53 am 05:53 Mostly Cloudy 55 12.8 48 8.9 77 77 NW 7 11 30.04 1017 10 16 0.00 0.00
6:53 am 06:53 Mostly Cloudy 55 12.8 48 8.9 77 77 WNW 8 13 30.04 1017 10 16 0.00 0.00
7:53 am 07:53 Mostly Cloudy 57 13.9 48 8.9 72 72 W 7 11 30.04 1017 10 16 0.00 0.00
8:53 am 08:53 Partly Cloudy 62 16.7 53 11.7 73 73 NW 10 17 30.04 1017 10 16 0.00 0.00
9:53 am 09:53 Mostly Sunny 65 18.3 53 11.7 66 66 NW 12 19 30.03 1017 10 16 0.00 0.00
10:53 am 10:53 Mostly Sunny 69 20.6 54 12.2 59 59 N 10 17 30.03 1017 10 16 0.00 0.00
11:53 am 11:53 Mostly Sunny 72 22.2 53 11.7 52 52 N 12 19 30.03 1017 10 16 0.00 0.00
12:53 pm 12:53 Mostly Sunny 75 23.9 52 11.1 45 45 WNW 15 24 30.01 1016 10 16 0.00 0.00
1:53 pm 13:53 Mostly Cloudy 77 25 53 11.7 43 43 NW 15 24 30.00 1016 10 16 0.00 0.00
2:53 pm 14:53 Partly Cloudy 74 23.3 51 10.6 45 45 NW 14 22 29.99 1016 10 16 0.00 0.00
3:53 pm 15:53 Mostly Cloudy 75 23.9 50 10 41 41 NW 14 22 29.98 1015 10 16 0.00 0.00
4:53 pm 16:53 Mostly Cloudy 78 25.6 49 9.4 36 36 WNW 10 17 29.96 1015 10 16 0.00 0.00
5:53 pm 17:53 Mostly Cloudy 77 25 50 10 39 39 W 14 22 29.95 1014 10 16 0.00 0.00
6:53 pm 18:53 Mostly Cloudy 77 25 50 10 39 39 WNW 15 24 29.95 1014 10 16 0.00 0.00
7:53 pm 19:53 Mostly Cloudy 73 22.8 50 10 44 44 WNW 10 17 29.96 1015 10 16 0.00 0.00
8:53 pm 20:53 Mostly Cloudy 71 21.7 51 10.6 49 49 W 7 11 29.97 1015 10 16 0.00 0.00
9:53 pm 21:53 Mostly Cloudy 70 21.1 51 10.6 51 51 W 6 9 29.98 1015 10 16 0.00 0.00
10:53 pm 22:53 Mostly Cloudy 68 20 52 11.1 57 57 WSW 5 7 29.98 1015 10 16 0.00 0.00
11:53 pm 23:53 Mostly Cloudy 66 18.9 52 11.1 61 61 W 5 7 29.99 1016 10 16 0.00 0.00

Powered by AerisWeather